Location: Newark
(43.9494°N, 6.8108°E)
Time: 09:12:27
(UTC+00:00)

Transit 2A Rocket - Pass Details

Date: 29 October 2019
Orbit: 594 x 909 km, 66.7° (Epoch: 13 November)

Event Time Altitude Azimuth Distance (km) Brightness Sun altitude
Exits shadow 04:03:00 15° 345° (NNW) 1,763 6.8 -22.4°
Drops below altitude 10° 04:04:17 10° 0° (N) 2,027 7.2 -22.2°
Sets 04:07:12 0° 21° (NNE) 2,898 8.3 -21.6°
